METEOR 1-23

Satellite information

Favourite Embed

Satellite Type and Status

PAYLOADIN ORBIT

Key statistics

Satellite METEOR 1-23 at a glance.

Uptime

18030

Days in orbit

Revolutions

≈ 14.1

Per day

Orbit

LEO

Low Earth Orbit

Inclination

81.2

Latest

Satellite identification and parameters

Extended collection of information and parameters for METEOR 1-23.

Object identification

Identified? True

Debris? False

Object name: METEOR 1-23

International designator: 1975-124A

Object number (NORAD): 8519

Object ID (CCSDS): 8519

Country: COMMONWEALTH OF INDEPENDENT STATES (CIS)

Current information (Y/N): Y

RCS size: LARGE

Orbital parameters

Period: 102.034 minutes

Inclination: 81.2432 deg

SMA: 7233.099 km

Apoapsis: 865.05 km

Periapsis: 844.878 km

RAAN: 162.8169 deg

Eccentricy: 0.0013944

Argument of periapsis: 44.2642 deg

Mean anomaly: 315.9642 deg

Mean motion: 14.11289623 rev/day

Mean motion (dot): 0.00000014 rev/day2

B* drag term: 0.00000060133 1/REarth

Two-line elements (TLE)

Creation date: May 5, 2025, 2:11 a.m.

Reference frame: TEME

Reference center: EARTH

Epoch: May 4, 2025, 7:27 p.m. UTC

TLE line 0: 0 METEOR 1-23

TLE line 1: 1 08519U 75124A 25124.81090060 .00000014 00000-0 60133-6 0 9994

TLE line 2: 2 08519 81.2432 162.8169 0013944 44.2642 315.9642 14.11289623539285

Live tracking on map

Real-time ground track for satellite METEOR 1-23.

In-orbit conjunctions

A list of the most updated potential collisions computed for object METEOR 1-23.

Target Orbit TCA Probability of collision Miss distance Type
DELTA 1 DEB SSO 2025-01-30 22:49:35 0.0005567311 397.0 (m) DEBRIS
NOAA 16 DEB SSO 2024-07-26 01:00:27 0.0005024527 78.0 (m) DEBRIS
NOAA 16 DEB SSO 2024-07-23 18:31:38 0.001571559 232.0 (m) DEBRIS
METEOR 2-8 DEB LEO 2024-07-21 01:50:42 0.0006235783 49.0 (m) DEBRIS

Associated space launch

The Meteor-1 series was the first series of Soviet meteorological satellites.

METEOR 1-23 was lifted into orbit during the mission ‘Vostok 8A92M | Meteor-1 23 (38L)’, on board a Vostok 8A92M space rocket.

The launch took place on Dec. 25, 1975, 7 p.m. from 41/1.

For more information about the launch, click the button.

Launch to space Vostok 8A92M | Meteor-1 23 (38L)
Vostok 8A92M | Meteor-1 23 (38L)

Agency: N/A

Status: Launch Successful

Launch date: Dec. 25, 1975, 7 p.m. UTC

Rocket: Vostok 8A92M

Launch pad: 41/1

Location: Plesetsk Cosmodrome, Russian Federation

...

Latest news about this satellite

There are no fresh news available about this satellite. Check back as we update our databases every day.


Newsletter sign-up

Weekly statistics, charts and insights to help you stay on top of the space industry.